Temp
35 35 35 35 35 36 35 36 37 37 37 38 40 42 42 42 42 42 43 43 43 43 43 43 43 43 43 43 42 41 40 39 39 38 39 37 36 35 35 34 34 34 33 33 32 31 31 30 30 30 30 30 29 28 28 27 27 27 26 26 26 26
34 34 34 35 36 36 36 36 35 37 37 37 39 38 39 39 40 41 41 42 42 42 42 42 43 43 43 42 41 40 40 40 39 38 37 37 36 35 35 34 34 33 33 32 32 31 30 30 30 30 29 29 29 28 27 26 27 27 26 25 26 26
36 37 35 34 34 35 36 37 38 38 37 38 39 40 39 40 41 40 41 42 42 41 41 42 42 42 42 41 40 40 40 39 39 38 38 36 35 35 34 34 34 33 33 32 32 31 31 30 30 29 29 29 28 27 27 26 26 26 25 25 25 25
36 37 37 35 35 36 37 37 35 37 39 40 39 38 39 41 41 41 42 42 42 41 42 42 42 41 40 40 39 39 39 39 38 38 36 36 36 35 34 34 34 33 33 32 32 31 31 31 30 29 29 29 28 26 26 25 25 25 24 24 23 24
36 35 37 39 39 39 38 37 37 39 39 39 39 40 41 41 42 43 42 42 42 41 42 42 41 41 40 40 40 39 40 39 38 37 36 36 35 35 35 34 34 33 33 32 32 31 31 31 30 29 29 29 28 27 26 26 25 25 23 23 23 23
36 37 39 39 39 39 40 40 39 39 38 39 39 39 41 41 42 42 41 41 41 41 40 40 41 39 39 39 40 39 40 39 38 36 36 36 35 34 34 34 34 33 32 32 31 31 31 30 30 29 29 29 28 27 26 25 25 25 24 24 23 22
43 45 44 43 43 43 43 42 40 39 39 39 39 41 42 41 42 41 41 41 41 41 40 40 40 39 39 39 40 40 40 39 38 36 36 36 35 34 34 33 33 33 32 32 31 31 30 30 29 28 28 28 28 28 27 26 25 24 24 23 23 23
48 47 45 44 45 46 45 44 42 41 40 40 40 40 40 41 41 41 41 41 41 41 40 40 39 39 39 39 40 40 39 39 37 35 36 36 35 34 34 33 33 33 32 32 32 31 31 30 29 28 28 27 27 26 26 25 24 24 23 22 22 22
45 46 48 49 47 44 44 43 42 41 40 39 39 40 40 41 40 41 41 42 41 41 41 40 40 40 40 40 40 40 39 37 36 35 35 35 34 33 32 33 32 32 32 32 32 31 31 30 29 28 28 27 26 25 24 24 23 23 22 21 21 21
43 43 45 45 46 47 46 44 42 41 40 40 40 39 39 40 39 40 41 41 41 41 41 41 41 41 41 40 39 38 37 36 35 34 34 33 33 33 33 32 32 32 32 32 31 31 30 29 28 28 27 26 25 24 24 23 22 21 21 20 20 20
41 42 43 43 44 45 46 47 48 47 45 42 41 40 39 39 38 39 40 40 40 41 42 42 41 40 39 38 37 36 35 35 35 34 33 33 33 33 32 32 32 30 30 30 30 29 29 29 28 28 27 25 24 24 23 22 21 21 20 19 19 19
40 41 41 42 43 44 44 45 46 47 47 49 49 45 42 36 38 40 39 39 40 41 41 41 40 39 37 36 36 36 35 34 33 32 32 31 32 32 31 31 31 30 30 29 29 28 28 28 28 29 30 29 25 24 23 21 20 20 20 19 18 18
40 40 40 41 42 43 43 44 45 45 46 47 47 47 44 36 39 39 39 39 40 41 40 39 38 38 36 36 36 34 33 33 31 31 30 30 29 29 30 30 30 30 30 30 29 27 27 27 27 30 32 31 30 25 22 21 20 20 19 18 18 17
38 38 39 40 41 42 42 42 42 43 43 44 44 45 43 37 37 38 38 39 40 39 38 38 37 36 36 35 34 33 32 32 30 30 29 29 28 29 29 30 30 30 30 29 28 27 27 27 29 32 32 32 31 28 22 21 19 19 19 18 18 18
37 38 38 39 40 41 41 42 41 40 41 41 42 43 42 39 38 38 38 39 38 38 37 36 35 34 33 33 33 32 31 30 30 29 28 28 29 29 28 30 29 29 29 29 28 27 27 27 30 32 33 33 32 30 25 20 19 19 18 18 18 18
37 38 38 38 39 40 41 41 40 40 39 40 41 41 41 40 38 37 37 37 36 36 35 34 33 33 33 32 31 31 30 30 29 29 29 29 28 28 28 28 28 28 28 28 27 27 27 26 30 33 33 33 33 31 26 19 19 19 19 19 19 19
36 37 37 38 38 39 40 40 40 38 38 38 38 39 38 38 37 37 36 36 35 33 32 33 33 32 31 30 30 30 29 29 29 28 28 28 28 27 27 27 27 27 26 26 27 26 26 26 31 33 34 34 33 32 26 19 19 18 18 20 20 20
36 36 36 38 38 38 39 39 38 36 36 37 37 36 35 34 34 34 34 34 33 31 31 30 30 30 28 29 29 29 29 29 29 28 28 28 28 27 27 27 27 26 25 26 25 25 24 25 31 33 34 34 34 32 22 19 18 18 18 18 19 20
38 38 38 39 38 38 38 38 37 36 35 35 35 33 33 33 33 33 33 32 32 31 31 31 31 29 28 28 28 28 28 28 28 28 28 27 27 26 26 26 26 26 25 25 24 24 23 23 29 33 34 34 35 30 19 18 18 17 17 18 19 20
38 38 38 38 38 39 39 38 37 35 34 34 34 33 32 31 32 32 31 31 31 31 30 31 29 29 29 28 28 28 29 29 28 28 27 26 26 25 26 26 25 25 24 24 23 24 23 22 28 33 34 34 35 27 19 18 18 17 17 18 19 20
37 36 37 37 36 37 38 37 36 35 34 34 34 33 32 31 30 30 29 30 29 28 29 30 30 30 29 28 29 28 28 28 28 28 26 27 26 26 26 24 24 23 23 23 23 25 24 21 26 32 34 34 34 25 20 19 19 18 18 19 19 20
35 34 34 34 35 36 35 35 35 34 33 34 34 33 33 32 30 30 29 28 28 27 27 28 30 30 29 29 28 27 28 27 26 25 25 25 26 25 24 23 23 22 21 21 21 22 23 21 22 29 34 34 34 28 22 21 20 18 18 19 18 17
33 33 33 34 34 34 34 34 33 32 33 33 33 33 34 33 30 28 28 27 26 26 27 28 29 29 28 28 27 27 26 25 25 24 23 23 23 22 22 21 21 20 20 20 20 21 21 20 21 26 34 35 34 30 27 21 21 20 19 19 18 18
31 31 31 31 32 31 32 31 29 30 31 31 31 33 35 34 31 28 26 26 26 25 25 24 25 27 26 25 25 24 24 23 23 23 22 22 21 20 19 19 18 18 18 17 18 19 19 22 25 25 32 34 35 32 29 23 22 22 20 19 18 18
28 28 28 29 29 29 29 28 26 27 29 29 31 33 34 34 32 30 27 26 25 24 24 23 24 24 24 24 25 24 23 21 20 19 19 19 18 18 17 17 17 16 15 14 15 16 17 19 22 27 29 34 34 34 29 27 24 27 21 19 17 17
27 26 26 26 27 26 26 25 25 25 25 26 30 31 32 33 33 31 29 28 25 23 23 23 23 22 22 23 24 24 22 20 19 19 19 19 18 17 16 16 16 16 15 14 14 15 16 18 20 25 29 32 34 35 30 29 27 28 21 19 18 19
23 23 23 24 24 24 24 25 23 23 22 24 26 27 30 32 32 30 29 29 27 25 24 23 22 22 21 22 23 22 21 19 18 18 18 18 18 18 17 16 16 16 16 15 14 14 15 16 19 21 26 31 33 34 31 29 29 28 26 20 19 21
21 21 20 21 22 22 23 23 22 20 21 23 24 27 30 28 28 27 28 29 29 27 24 22 22 22 22 22 23 23 22 19 19 19 18 18 18 18 18 16 15 16 16 15 13 13 13 15 17 19 23 27 31 32 31 29 29 28 26 23 21 24
18 17 17 18 20 20 21 21 20 20 21 21 23 26 25 23 23 24 26 27 28 28 24 22 22 22 21 21 22 22 21 20 20 19 18 18 18 18 18 17 16 16 16 16 14 13 14 14 16 18 20 24 26 28 29 27 26 28 26 22 22 24
15 15 15 15 17 18 18 18 17 18 19 21 23 23 21 20 20 21 23 25 27 27 25 23 20 20 21 20 20 21 20 20 20 19 19 18 18 18 17 17 16 16 16 16 15 13 13 14 15 17 19 21 24 25 27 26 24 24 23 20 21 21
13 13 13 14 15 15 15 15 16 18 19 20 20 19 17 17 18 19 20 23 25 26 24 22 22 21 21 20 19 20 21 20 19 20 20 21 21 21 20 19 19 18 19 19 17 14 12 13 14 16 22 22 26 25 25 23 23 23 20 21 21 15
12 11 11 12 12 12 13 14 15 16 17 16 15 15 14 15 16 17 19 21 24 25 24 21 21 20 20 20 19 19 19 21 24 22 20 20 23 25 26 24 20 20 20 19 19 18 15 14 17 22 25 26 27 28 28 27 27 24 21 22 22 16
10 9 8 9 10 10 11 11 12 12 12 13 13 13 14 15 15 17 18 20 22 24 24 23 21 20 19 19 19 18 18 17 20 25 26 24 24 25 25 26 26 26 25 21 19 21 23 22 23 25 26 27 28 28 29 28 27 25 24 24 17 13
7 7 6 7 7 7 7 7 7 8 10 11 12 13 13 14 15 15 17 20 21 23 23 23 22 21 19 18 19 18 17 17 16 17 24 27 25 25 26 26 27 27 26 26 23 20 20 23 25 25 26 27 28 28 28 28 26 26 26 24 21 10
6 6 5 5 4 4 4 4 5 6 7 9 10 11 11 12 13 14 16 19 21 22 22 22 21 20 20 18 17 16 17 16 16 15 15 20 26 26 26 26 27 27 26 27 26 25 23 23 25 26 27 27 28 28 28 28 27 27 27 24 14 8
4 4 3 2 2 2 2 2 3 5 6 7 8 9 10 11 13 14 16 18 20 21 22 23 22 20 20 19 19 18 17 17 17 17 17 16 16 19 23 26 27 27 27 27 27 26 25 26 26 27 27 28 28 28 28 27 25 27 27 19 10 8
2 1 2 3 2 2 1 1 2 4 5 6 8 9 10 13 14 15 17 18 19 20 22 23 23 21 20 19 18 17 17 17 17 17 16 16 15 15 15 17 21 26 28 25 25 26 26 27 27 28 28 28 28 28 28 27 22 21 16 11 8 7
-0 -0 0 1 -0 -0 -0 0 2 4 6 7 10 10 9 8 8 10 12 14 17 19 21 23 23 22 20 19 18 18 17 17 17 16 16 17 17 17 16 17 19 21 25 27 26 26 27 27 28 28 28 27 28 28 28 20 17 12 9 6 5 4
MSLP
1003.31 1003.47 1003.67 1004.35 1004.75 1004.91 1005.15 1005.43 1005.59 1005.51 1005.43 1005.43 1005.35 1005.07 1005.23 1005.87 1006.35 1006.63 1006.79 1006.63 1006.35 1006.43 1006.63 1006.87 1007.15 1007.31 1007.39 1007.67 1008.15 1008.71 1009.11 1009.43 1009.83 1010.23 1010.51 1011.27 1011.83 1012.27 1012.83 1013.39 1013.91 1014.43 1014.91 1015.35 1015.83 1016.27 1016.59 1016.91 1017.15 1017.47 1017.79 1018.07 1018.35 1018.67 1018.95 1019.27 1019.59 1019.83 1020.27 1020.67 1020.91 1021.23
1003.07 1003.43 1003.71 1003.95 1004.11 1004.35 1004.63 1004.91 1005.23 1005.39 1005.63 1005.63 1005.39 1005.51 1005.59 1005.71 1005.99 1006.39 1006.59 1006.39 1006.39 1006.27 1006.55 1006.83 1006.91 1007.03 1007.31 1007.51 1007.83 1008.23 1008.31 1008.63 1009.23 1009.71 1010.31 1010.55 1011.19 1011.79 1012.35 1012.83 1013.31 1013.83 1014.39 1014.95 1015.43 1015.91 1016.31 1016.59 1016.91 1017.19 1017.51 1017.91 1018.11 1018.39 1018.71 1019.07 1019.31 1019.59 1019.95 1020.43 1020.75 1021.03
1003.91 1004.19 1004.31 1004.51 1004.71 1004.75 1004.79 1004.71 1004.59 1004.83 1005.27 1005.19 1005.11 1005.07 1005.15 1005.27 1005.31 1005.79 1005.83 1006.15 1006.07 1006.03 1005.99 1005.99 1006.51 1006.83 1007.23 1007.71 1007.87 1007.99 1008.23 1008.63 1008.99 1009.35 1009.59 1010.39 1010.83 1011.23 1011.83 1012.31 1012.75 1013.31 1013.83 1014.43 1014.95 1015.39 1015.71 1016.07 1016.51 1016.87 1017.23 1017.55 1017.87 1018.23 1018.43 1018.87 1019.11 1019.35 1019.79 1020.19 1020.55 1020.79
1003.55 1003.87 1004.03 1004.27 1004.31 1004.27 1004.35 1004.75 1005.11 1004.87 1004.51 1004.43 1004.83 1005.15 1005.07 1004.67 1004.79 1004.67 1004.55 1005.15 1005.23 1005.43 1005.31 1005.51 1005.87 1006.51 1007.23 1007.59 1007.79 1007.87 1008.03 1008.31 1008.59 1008.91 1009.59 1009.79 1010.15 1010.67 1011.15 1011.63 1012.23 1012.79 1013.35 1013.95 1014.51 1015.03 1015.39 1015.67 1015.95 1016.35 1016.71 1017.03 1017.51 1017.95 1018.27 1018.59 1018.87 1019.15 1019.59 1019.91 1020.15 1020.43
1002.59 1003.11 1003.27 1003.15 1003.39 1003.83 1004.19 1004.35 1004.39 1004.35 1004.39 1004.55 1004.47 1004.31 1003.83 1003.99 1004.03 1004.27 1004.67 1004.95 1004.95 1004.79 1004.71 1005.19 1005.67 1005.99 1006.39 1006.79 1007.15 1007.31 1007.31 1007.55 1008.03 1008.67 1009.07 1009.43 1009.91 1010.31 1010.63 1011.11 1011.67 1012.27 1012.87 1013.47 1013.99 1014.51 1014.99 1015.27 1015.63 1015.99 1016.23 1016.55 1016.87 1017.31 1017.83 1018.19 1018.47 1018.75 1019.15 1019.43 1019.63 1019.95
1002.95 1002.55 1002.07 1002.63 1003.23 1003.15 1003.11 1003.47 1003.83 1003.87 1003.91 1003.87 1003.99 1003.95 1003.43 1003.63 1003.55 1003.95 1004.55 1004.71 1004.75 1004.75 1005.11 1005.19 1005.19 1005.75 1006.07 1006.39 1006.39 1006.59 1006.67 1006.99 1007.47 1008.03 1008.55 1009.11 1009.67 1010.07 1010.39 1010.79 1011.27 1011.87 1012.39 1012.87 1013.43 1013.91 1014.31 1014.87 1015.23 1015.63 1015.87 1016.07 1016.39 1016.79 1017.27 1017.75 1018.15 1018.43 1018.67 1018.83 1019.19 1019.59
1002.11 1001.99 1002.15 1002.19 1002.07 1002.19 1002.39 1002.63 1003.07 1003.39 1003.35 1003.51 1003.39 1002.75 1002.63 1003.11 1003.35 1003.71 1003.87 1004.23 1004.43 1004.63 1004.75 1004.67 1004.95 1005.15 1005.39 1005.63 1005.91 1006.11 1006.43 1006.75 1007.07 1007.55 1007.95 1008.63 1009.15 1009.59 1010.07 1010.55 1010.99 1011.43 1011.87 1012.15 1012.51 1013.11 1013.71 1014.19 1014.67 1015.19 1015.67 1015.99 1016.19 1016.43 1016.83 1017.27 1017.67 1018.07 1018.39 1018.59 1018.87 1019.19
1003.19 1003.03 1003.03 1002.87 1002.67 1002.59 1002.47 1002.43 1002.67 1002.79 1002.83 1002.83 1002.87 1002.63 1002.55 1002.79 1003.03 1003.23 1003.35 1003.59 1003.99 1004.23 1004.27 1004.15 1004.47 1004.51 1004.63 1004.79 1005.03 1005.47 1006.11 1006.55 1006.95 1007.31 1007.67 1008.03 1008.59 1009.23 1009.59 1009.95 1010.47 1010.67 1011.07 1011.51 1011.95 1012.39 1012.87 1013.51 1014.03 1014.51 1014.99 1015.43 1015.87 1016.23 1016.59 1016.95 1017.31 1017.75 1018.19 1018.55 1018.83 1019.07
1005.39 1004.91 1004.03 1003.43 1003.23 1003.39 1003.35 1003.31 1003.35 1003.43 1003.31 1002.99 1002.95 1002.75 1002.47 1002.47 1002.75 1002.75 1002.87 1002.91 1003.15 1003.31 1003.67 1003.83 1003.63 1003.59 1003.75 1003.91 1004.23 1004.87 1005.67 1006.19 1006.63 1006.99 1007.27 1007.63 1008.11 1008.71 1009.23 1009.59 1009.95 1010.35 1010.67 1011.03 1011.59 1011.99 1012.39 1012.95 1013.59 1014.19 1014.63 1015.07 1015.47 1015.79 1016.15 1016.63 1017.15 1017.63 1018.07 1018.39 1018.71 1019.03
1006.47 1005.99 1005.51 1005.03 1004.67 1003.91 1003.55 1003.47 1003.43 1003.27 1003.19 1003.07 1002.91 1002.79 1002.51 1002.27 1002.31 1002.31 1002.35 1002.47 1002.67 1002.71 1002.67 1003.03 1003.07 1002.95 1002.87 1003.35 1004.07 1004.59 1005.03 1005.59 1006.15 1006.47 1006.79 1007.31 1007.75 1008.15 1008.55 1008.99 1009.39 1009.87 1010.47 1010.83 1011.27 1011.79 1012.39 1012.87 1013.35 1013.87 1014.39 1014.79 1015.15 1015.55 1015.91 1016.27 1016.79 1017.35 1017.87 1018.23 1018.59 1018.95
1007.35 1006.71 1006.31 1005.99 1005.39 1004.87 1004.31 1003.75 1003.07 1002.71 1002.59 1002.47 1002.23 1002.15 1001.91 1001.87 1002.15 1001.99 1001.99 1002.11 1002.11 1001.87 1001.95 1002.19 1002.51 1002.79 1003.11 1003.47 1003.79 1004.15 1004.55 1004.95 1005.39 1006.03 1006.47 1006.75 1007.07 1007.59 1008.07 1008.63 1009.23 1009.83 1010.35 1010.75 1011.15 1011.63 1012.11 1012.55 1012.95 1013.31 1013.79 1014.43 1015.07 1015.43 1015.75 1016.15 1016.55 1017.03 1017.55 1018.03 1018.47 1018.91
1007.91 1007.35 1006.99 1006.47 1006.07 1005.59 1005.03 1004.43 1003.91 1003.43 1002.91 1001.91 1001.11 1001.07 1001.15 1001.79 1001.75 1001.63 1001.67 1001.71 1001.31 1001.11 1001.35 1001.59 1001.91 1002.27 1002.71 1003.19 1003.39 1003.51 1003.87 1004.47 1005.11 1005.63 1005.95 1006.27 1006.59 1007.11 1007.71 1008.31 1008.83 1009.27 1009.67 1010.19 1010.75 1011.15 1011.55 1011.95 1012.31 1012.71 1013.15 1013.59 1014.15 1014.83 1015.47 1016.03 1016.39 1016.75 1017.19 1017.71 1018.27 1018.87
1008.31 1007.91 1007.43 1007.03 1006.59 1006.15 1005.71 1005.19 1004.59 1003.99 1003.23 1002.51 1001.83 1001.15 1000.87 1001.31 1001.19 1001.15 1001.19 1001.07 1000.83 1000.95 1001.19 1001.47 1001.63 1001.91 1002.11 1002.11 1002.67 1003.19 1003.59 1003.91 1004.43 1004.99 1005.47 1005.91 1006.27 1006.67 1007.23 1007.79 1008.31 1008.67 1009.11 1009.47 1009.87 1010.43 1010.91 1011.35 1011.79 1012.19 1012.55 1012.99 1013.63 1014.27 1014.83 1015.31 1015.87 1016.35 1016.87 1017.35 1017.83 1018.39
1008.67 1008.35 1008.03 1007.63 1007.23 1006.67 1006.15 1005.63 1005.15 1004.67 1003.99 1003.27 1002.55 1001.71 1001.03 1000.95 1000.79 1000.83 1000.79 1000.47 1000.31 1000.59 1000.95 1001.11 1001.23 1001.47 1001.43 1001.79 1002.07 1002.43 1002.91 1003.43 1004.07 1004.51 1004.91 1005.43 1005.91 1006.31 1006.79 1007.19 1007.47 1008.03 1008.51 1009.07 1009.55 1009.95 1010.35 1010.83 1011.31 1011.67 1011.99 1012.39 1012.91 1013.63 1014.31 1014.87 1015.39 1015.95 1016.43 1016.95 1017.43 1017.99
1009.11 1008.75 1008.31 1007.83 1007.39 1007.03 1006.63 1006.31 1005.75 1005.11 1004.63 1003.99 1003.07 1002.27 1001.51 1000.95 1000.67 1000.43 1000.23 1000.03 1000.19 1000.35 1000.43 1000.83 1001.15 1001.15 1001.27 1001.39 1001.59 1002.23 1002.87 1003.27 1003.67 1004.11 1004.51 1004.71 1004.95 1005.83 1006.35 1006.51 1007.11 1007.51 1007.95 1008.43 1008.91 1009.43 1009.95 1010.47 1010.87 1011.19 1011.51 1011.91 1012.35 1012.99 1013.83 1014.51 1015.03 1015.47 1015.99 1016.47 1016.99 1017.43
1009.23 1008.83 1008.59 1008.27 1007.79 1007.35 1006.79 1006.19 1005.83 1005.27 1004.71 1004.15 1003.23 1002.51 1001.75 1001.23 1000.71 1000.63 1000.27 1000.15 1000.27 1000.19 1000.27 1000.35 1000.71 1000.99 1001.11 1001.35 1001.79 1002.19 1002.59 1002.95 1003.15 1003.47 1003.99 1004.59 1005.19 1005.39 1005.79 1006.31 1006.63 1007.07 1007.47 1007.75 1008.23 1008.79 1009.39 1009.95 1010.31 1010.55 1010.87 1011.31 1011.83 1012.47 1013.35 1014.19 1014.67 1015.15 1015.59 1015.99 1016.43 1016.87
1009.23 1008.83 1008.51 1008.07 1007.59 1007.07 1006.51 1005.79 1005.43 1005.11 1004.35 1003.79 1003.31 1002.75 1002.39 1001.79 1001.39 1000.91 1000.63 1000.51 1000.51 1000.71 1000.67 1000.55 1000.59 1000.67 1001.11 1001.59 1001.79 1002.11 1002.47 1002.75 1003.19 1003.59 1003.83 1004.19 1004.47 1004.83 1005.15 1005.55 1006.19 1006.55 1007.03 1007.59 1008.03 1008.51 1009.03 1009.59 1009.95 1010.15 1010.51 1010.95 1011.43 1012.07 1013.03 1013.95 1014.47 1014.99 1015.43 1015.83 1016.19 1016.51
1009.27 1008.99 1008.63 1008.19 1007.79 1007.19 1006.75 1006.27 1005.79 1005.51 1004.87 1004.15 1003.75 1003.31 1002.91 1002.55 1002.07 1001.59 1001.31 1001.07 1000.91 1000.99 1001.07 1001.11 1001.03 1001.19 1001.51 1001.91 1002.11 1002.19 1002.31 1002.71 1002.95 1003.19 1003.63 1004.03 1004.47 1004.95 1005.35 1005.79 1006.07 1006.47 1006.87 1007.23 1007.63 1008.11 1008.67 1009.27 1009.51 1009.63 1009.95 1010.47 1010.99 1011.71 1012.87 1013.67 1014.11 1014.63 1015.15 1015.63 1015.99 1016.39
1009.23 1008.99 1008.59 1008.15 1007.75 1007.31 1006.71 1006.31 1005.99 1005.63 1005.15 1004.43 1003.83 1003.59 1003.15 1002.91 1002.43 1002.03 1001.83 1001.51 1001.27 1001.31 1001.27 1001.19 1001.11 1001.15 1001.39 1001.75 1002.11 1002.23 1002.27 1002.51 1002.83 1003.15 1003.43 1003.83 1004.11 1004.51 1004.91 1005.15 1005.51 1005.95 1006.47 1006.95 1007.39 1007.79 1008.31 1009.03 1009.15 1009.35 1009.67 1010.15 1010.71 1011.51 1012.83 1013.35 1013.87 1014.39 1014.83 1015.27 1015.67 1016.11
1009.07 1008.87 1008.79 1008.43 1007.99 1007.55 1006.99 1006.59 1006.19 1005.71 1005.19 1004.67 1004.15 1003.79 1003.31 1003.11 1002.79 1002.59 1002.39 1001.91 1001.63 1001.55 1001.51 1001.35 1001.19 1001.15 1001.27 1001.55 1001.75 1002.03 1002.39 1002.63 1002.79 1002.87 1003.03 1003.19 1003.55 1003.99 1004.35 1004.87 1005.47 1005.91 1006.23 1006.63 1007.03 1007.39 1008.07 1008.75 1008.87 1008.83 1009.23 1009.67 1010.23 1011.39 1012.55 1013.11 1013.55 1014.07 1014.43 1014.91 1015.35 1015.75
1009.19 1008.91 1008.75 1008.59 1008.27 1007.67 1007.31 1006.75 1006.15 1005.71 1005.27 1004.75 1004.43 1004.11 1003.59 1003.15 1003.11 1002.91 1002.71 1002.43 1002.19 1001.95 1001.79 1001.63 1001.39 1001.19 1001.27 1001.43 1001.51 1001.79 1002.11 1002.39 1002.67 1002.91 1003.19 1003.27 1003.43 1003.79 1004.31 1004.87 1005.27 1005.75 1006.11 1006.43 1006.83 1007.39 1007.75 1008.35 1008.63 1008.55 1008.67 1009.15 1009.59 1010.87 1011.83 1012.47 1012.91 1013.39 1013.87 1014.27 1014.79 1015.27
1009.27 1009.03 1008.87 1008.67 1008.35 1008.03 1007.63 1006.91 1006.19 1005.75 1005.47 1004.95 1004.59 1004.27 1003.67 1003.51 1003.59 1003.31 1002.99 1002.71 1002.39 1002.11 1001.87 1001.71 1001.55 1001.35 1001.23 1001.31 1001.59 1001.83 1001.99 1002.31 1002.71 1003.07 1003.31 1003.43 1003.47 1003.75 1004.15 1004.67 1005.03 1005.43 1005.95 1006.59 1007.11 1007.47 1007.79 1008.39 1008.63 1008.43 1008.31 1008.67 1009.11 1010.11 1010.91 1011.63 1012.11 1012.59 1013.15 1013.59 1014.03 1014.71
1009.63 1009.51 1009.31 1009.07 1008.71 1008.35 1007.87 1007.27 1006.67 1005.99 1005.39 1005.11 1004.75 1004.39 1003.91 1003.71 1003.79 1003.55 1003.15 1002.79 1002.51 1002.27 1002.03 1001.91 1001.71 1001.39 1001.27 1001.35 1001.51 1001.83 1002.15 1002.47 1002.75 1003.19 1003.47 1003.59 1003.83 1004.07 1004.47 1004.79 1005.11 1005.51 1005.95 1006.43 1006.87 1007.31 1007.71 1008.07 1008.35 1008.39 1008.19 1008.31 1008.71 1009.71 1010.31 1011.19 1011.51 1011.87 1012.35 1012.83 1013.51 1013.99
1009.63 1009.43 1009.27 1009.35 1009.43 1009.15 1008.47 1007.87 1007.23 1006.47 1005.79 1005.23 1004.91 1004.55 1004.07 1003.75 1003.67 1003.63 1003.39 1002.95 1002.59 1002.35 1002.15 1001.91 1001.71 1001.55 1001.39 1001.47 1001.71 1001.99 1002.23 1002.55 1002.83 1003.23 1003.51 1003.83 1004.07 1004.31 1004.71 1005.07 1005.39 1005.67 1006.11 1006.63 1007.03 1007.35 1007.71 1008.15 1008.27 1008.23 1007.99 1007.91 1008.03 1008.75 1009.51 1010.43 1011.15 1011.55 1011.99 1012.59 1013.03 1013.43
1009.75 1009.63 1009.59 1009.39 1009.51 1009.31 1008.91 1008.31 1007.67 1006.87 1006.19 1005.67 1005.11 1004.63 1004.23 1003.83 1003.59 1003.43 1003.35 1003.11 1002.75 1002.43 1002.19 1002.03 1001.91 1001.79 1001.75 1001.71 1001.79 1002.07 1002.47 1002.87 1003.11 1003.51 1003.91 1004.27 1004.55 1004.67 1004.95 1005.23 1005.51 1005.83 1006.27 1006.83 1007.27 1007.59 1007.99 1008.39 1008.51 1008.39 1008.11 1007.79 1007.83 1008.15 1009.03 1009.63 1010.63 1011.27 1011.91 1011.95 1012.35 1012.71
1010.11 1009.95 1009.67 1009.63 1009.51 1009.31 1008.95 1008.47 1007.75 1006.99 1006.67 1006.27 1005.59 1005.15 1004.47 1003.91 1003.47 1003.19 1003.07 1002.91 1002.79 1002.63 1002.43 1002.27 1002.19 1002.07 1001.95 1001.87 1001.87 1002.07 1002.47 1003.03 1003.35 1003.63 1003.79 1004.11 1004.47 1004.83 1005.19 1005.55 1005.71 1005.87 1006.19 1006.59 1007.15 1007.63 1007.99 1008.31 1008.51 1008.47 1008.23 1007.91 1007.83 1007.91 1008.71 1009.19 1009.91 1010.63 1011.43 1011.87 1012.11 1012.43
1010.59 1010.27 1009.91 1009.63 1009.43 1009.03 1008.67 1008.31 1007.99 1007.23 1006.75 1006.31 1006.27 1005.79 1004.71 1003.91 1003.55 1003.43 1003.03 1002.71 1002.55 1002.47 1002.39 1002.35 1002.23 1002.11 1002.03 1001.95 1001.91 1001.99 1002.39 1002.91 1003.39 1003.75 1004.03 1004.23 1004.31 1004.43 1004.67 1005.15 1005.39 1005.43 1005.67 1006.19 1006.71 1007.27 1007.83 1008.11 1008.31 1008.59 1008.39 1008.11 1007.95 1007.95 1008.55 1009.07 1009.67 1010.15 1010.99 1011.71 1012.15 1012.27
1010.75 1010.43 1009.83 1009.07 1009.03 1009.03 1008.59 1008.27 1008.19 1007.83 1006.75 1006.51 1006.55 1005.83 1004.95 1004.67 1004.31 1003.87 1003.39 1002.75 1002.23 1002.03 1002.15 1002.15 1002.11 1002.11 1002.07 1002.03 1001.91 1001.83 1001.99 1002.39 1002.87 1003.19 1003.67 1004.07 1004.11 1004.19 1004.23 1004.55 1004.91 1005.11 1005.43 1005.87 1006.51 1007.07 1007.51 1007.87 1008.03 1008.11 1008.15 1008.11 1007.95 1007.99 1008.43 1009.07 1009.55 1009.99 1010.71 1011.55 1012.11 1012.23
1010.95 1010.47 1009.99 1009.27 1008.35 1008.67 1008.63 1008.27 1008.07 1007.83 1007.23 1006.79 1006.43 1005.87 1005.63 1005.43 1005.15 1004.43 1003.55 1002.83 1002.07 1001.63 1001.79 1001.91 1001.83 1001.99 1002.07 1002.03 1001.95 1001.87 1001.99 1002.31 1002.63 1002.87 1003.23 1003.51 1003.59 1003.75 1003.83 1003.99 1004.31 1004.59 1004.91 1005.23 1005.83 1006.47 1006.99 1007.35 1007.55 1007.55 1007.55 1007.63 1007.75 1007.87 1008.23 1008.99 1009.55 1010.11 1010.83 1011.59 1012.03 1012.19
1011.19 1010.87 1010.43 1009.75 1008.71 1008.59 1008.67 1008.39 1008.07 1007.67 1007.27 1006.75 1006.27 1006.07 1005.95 1005.75 1005.39 1004.95 1003.83 1002.83 1002.07 1001.43 1001.27 1001.47 1001.43 1001.63 1001.71 1001.75 1001.67 1001.55 1001.71 1001.95 1002.19 1002.39 1002.43 1002.59 1002.75 1003.03 1003.15 1003.23 1003.55 1003.67 1003.83 1004.31 1005.23 1006.19 1006.75 1006.95 1006.79 1006.71 1006.51 1006.59 1006.91 1007.47 1007.91 1008.59 1009.31 1009.79 1010.43 1011.27 1011.71 1012.07
1010.91 1010.67 1010.47 1009.79 1009.15 1009.07 1008.79 1008.35 1007.87 1007.31 1007.07 1006.79 1006.67 1006.71 1006.59 1005.87 1005.23 1004.71 1003.87 1002.75 1001.87 1001.03 1000.83 1001.11 1001.11 1001.27 1001.23 1001.27 1001.31 1001.07 1000.83 1000.99 1001.39 1001.59 1001.83 1002.11 1002.31 1002.35 1002.55 1002.83 1002.91 1003.11 1003.43 1003.91 1004.51 1005.43 1006.07 1006.27 1005.91 1005.31 1005.47 1005.87 1006.11 1006.55 1007.15 1008.03 1008.83 1009.51 1010.43 1011.03 1011.63 1012.51
1011.11 1010.71 1010.31 1009.75 1009.55 1009.43 1008.95 1008.19 1007.63 1007.27 1007.15 1007.39 1007.43 1007.27 1006.91 1005.99 1005.11 1004.35 1003.27 1002.47 1001.59 1000.75 1000.47 1000.67 1000.83 1000.87 1000.91 1000.87 1000.87 1000.95 1000.99 1000.95 1000.99 1001.19 1001.39 1001.63 1001.91 1002.15 1002.31 1002.59 1002.83 1003.07 1003.47 1003.79 1003.95 1004.19 1004.39 1004.51 1004.55 1005.47 1005.79 1005.87 1006.11 1006.47 1006.95 1007.63 1008.19 1008.95 1009.87 1010.47 1011.19 1012.07
1010.87 1010.83 1010.43 1009.79 1009.59 1009.39 1009.03 1008.59 1007.91 1007.47 1007.43 1007.83 1007.55 1007.31 1006.67 1005.83 1004.99 1003.79 1002.71 1001.91 1001.15 1000.51 1000.27 1000.23 1000.31 1000.39 1000.47 1000.39 1000.47 1000.55 1000.67 1000.91 1000.91 1000.79 1000.95 1001.23 1001.51 1001.71 1001.95 1002.15 1002.43 1002.75 1003.03 1003.47 1003.83 1004.11 1004.47 1004.79 1005.15 1005.35 1005.75 1005.95 1005.99 1006.19 1006.55 1007.15 1007.83 1008.59 1009.23 1009.87 1010.83 1011.99
1010.71 1010.55 1010.15 1009.59 1009.47 1009.27 1008.95 1008.67 1007.99 1007.55 1007.83 1007.91 1007.35 1006.87 1006.19 1005.31 1004.63 1003.43 1002.23 1001.55 1001.03 1000.43 1000.07 999.87 999.83 999.87 999.99 999.99 1000.07 1000.19 1000.31 1000.35 1000.67 1000.79 1000.59 1000.63 1001.03 1001.31 1001.47 1001.71 1001.87 1002.23 1002.51 1002.87 1003.39 1003.87 1004.15 1004.35 1004.63 1004.99 1005.27 1005.67 1005.91 1006.11 1006.47 1007.03 1007.59 1008.19 1008.79 1009.51 1010.23 1011.63
1010.59 1010.19 1009.95 1009.63 1009.31 1008.91 1008.47 1008.19 1007.19 1007.11 1007.87 1007.63 1007.11 1006.63 1005.71 1004.83 1004.27 1003.23 1001.99 1001.15 1000.63 1000.23 999.83 999.55 999.39 999.35 999.39 999.47 999.55 999.75 999.83 999.91 999.91 1000.15 1000.55 1000.59 1000.71 1000.95 1001.19 1001.39 1001.51 1001.71 1002.03 1002.35 1002.75 1003.15 1003.47 1003.71 1003.99 1004.27 1004.67 1005.15 1005.63 1005.99 1006.43 1006.91 1007.47 1007.95 1008.43 1009.27 1010.51 1011.51
1010.51 1010.03 1009.67 1009.55 1009.31 1008.67 1007.87 1007.15 1006.11 1006.47 1007.23 1007.07 1006.47 1005.87 1004.95 1004.03 1003.31 1002.59 1001.59 1000.75 1000.19 999.83 999.27 998.87 998.87 998.91 998.87 998.75 998.79 998.87 999.07 999.19 999.23 999.47 999.79 1000.43 1000.87 1000.95 1001.03 1001.11 1001.15 1001.27 1001.59 1001.87 1002.11 1002.55 1002.95 1003.27 1003.59 1003.87 1004.19 1004.59 1005.07 1005.63 1006.15 1006.71 1007.27 1007.79 1008.19 1009.07 1010.35 1011.23
1010.27 1009.75 1009.31 1009.19 1008.79 1008.23 1007.43 1006.43 1005.51 1006.23 1006.39 1005.99 1005.35 1004.59 1003.75 1002.99 1002.35 1001.71 1000.91 1000.27 999.95 999.67 998.95 998.35 998.11 998.15 998.15 998.23 998.31 998.35 998.51 998.67 998.95 999.23 999.51 999.83 1000.11 1000.43 1000.71 1000.87 1000.91 1000.99 1001.15 1001.47 1001.75 1002.03 1002.35 1002.67 1002.99 1003.27 1003.63 1004.11 1004.63 1005.11 1005.67 1006.35 1007.15 1007.55 1008.55 1009.87 1010.67 1011.07
1009.67 1009.23 1008.95 1008.79 1008.39 1007.71 1007.03 1005.79 1005.51 1005.87 1005.35 1004.79 1004.07 1003.55 1003.27 1003.03 1002.59 1002.03 1001.23 1000.15 999.59 999.27 998.59 997.83 997.43 997.39 997.47 997.51 997.55 997.75 997.99 998.27 998.59 998.95 999.15 999.39 999.71 999.99 1000.31 1000.55 1000.63 1000.71 1000.75 1001.03 1001.39 1001.75 1002.03 1002.31 1002.59 1002.99 1003.43 1003.87 1004.27 1004.75 1005.11 1005.87 1006.51 1007.71 1008.83 1009.67 1010.51 1010.99
Wind_Speed
5 4 3 3 3 3 4 4 5 5 6 6 10 14 13 11 11 11 11 13 13 13 15 16 15 14 14 13 12 11 13 14 13 13 12 8 10 11 11 12 12 12 12 11 11 10 11 10 10 9 9 9 8 8 8 7 8 8 7 6 7 6
4 3 4 4 5 6 6 6 5 7 6 6 8 7 7 8 11 11 13 13 12 12 10 12 14 14 14 13 12 12 15 14 13 13 11 13 10 11 12 12 13 13 13 12 11 11 11 11 10 10 10 9 9 9 9 8 9 9 9 8 6 6
3 2 2 3 4 4 5 7 9 8 7 10 10 12 11 11 13 12 15 12 14 13 15 16 14 15 12 10 12 13 12 11 11 12 12 9 12 12 13 13 14 14 14 13 13 13 13 13 12 10 10 10 10 9 9 9 9 10 8 8 8 6
4 1 1 3 4 6 7 6 5 7 11 12 9 8 11 14 13 16 17 15 14 15 16 15 13 12 10 11 11 12 12 12 12 12 10 13 12 13 14 14 13 13 14 13 13 13 12 12 13 12 11 12 11 10 8 9 10 10 9 9 9 8
5 4 4 5 7 7 6 7 10 11 10 9 11 12 16 14 15 13 11 12 14 16 16 13 11 12 14 15 13 14 14 13 12 11 13 13 12 12 13 14 14 14 14 13 13 13 13 13 12 12 12 12 13 13 11 10 11 11 12 11 11 10
4 5 6 5 5 7 9 10 10 10 10 12 11 14 17 13 13 12 11 12 13 13 10 12 12 12 13 14 15 16 16 13 12 11 13 12 11 13 12 12 14 13 14 14 14 14 14 13 12 12 12 13 13 13 13 12 11 11 11 11 11 10
8 8 7 6 7 8 8 9 10 11 12 11 13 16 16 12 11 10 12 12 14 13 13 14 13 14 15 16 14 16 14 13 12 11 13 12 13 13 12 12 12 14 15 16 16 16 15 14 14 13 12 11 11 12 12 12 12 11 11 10 10 9
12 11 7 7 8 9 10 9 9 10 11 12 12 12 10 11 10 11 12 12 14 14 15 15 13 15 17 17 16 16 14 12 11 11 11 13 13 12 13 14 13 14 16 15 15 16 15 15 14 14 14 13 12 11 11 11 11 10 10 9 8 9
19 18 21 20 15 8 9 11 11 10 9 11 9 11 11 10 9 11 12 14 15 15 15 15 16 17 17 17 16 13 11 12 12 12 13 12 13 13 13 13 14 13 15 15 14 15 15 15 14 13 13 13 12 12 12 11 10 9 8 8 8 8
15 17 18 18 18 19 16 10 9 10 10 12 11 10 10 9 9 11 12 13 14 15 16 15 16 16 17 14 11 11 12 12 12 13 12 11 13 14 15 15 15 13 12 13 13 13 12 13 13 13 13 12 12 12 12 11 11 10 8 8 8 8
15 16 16 15 17 19 19 18 17 14 11 11 11 8 10 8 6 11 12 13 15 17 16 14 13 12 11 11 12 12 13 14 14 12 12 13 13 12 13 13 13 13 13 11 12 12 12 13 13 12 13 13 12 11 11 11 11 11 10 9 8 7
16 16 15 17 17 18 19 18 18 18 18 18 16 11 9 5 9 12 12 13 16 16 14 14 12 11 11 11 13 14 14 13 12 13 13 13 13 12 12 12 13 14 14 14 13 13 12 12 11 13 20 17 14 13 11 10 10 11 10 10 9 8
16 16 17 18 19 18 17 17 17 18 19 19 18 17 11 5 10 12 12 14 15 14 12 11 12 11 13 15 13 11 12 14 13 13 13 12 12 13 13 13 15 14 14 15 15 15 13 12 10 20 22 23 21 14 12 13 12 11 11 10 11 11
16 17 17 17 17 18 17 18 17 17 19 20 20 19 13 7 9 10 12 15 15 12 12 12 11 12 14 12 14 14 13 12 12 13 14 13 13 13 12 15 16 15 14 13 13 14 13 12 15 24 24 24 24 19 13 11 11 11 11 10 10 9
13 15 16 16 17 17 18 16 16 17 18 19 20 18 16 11 10 11 13 14 12 11 11 9 10 12 12 13 13 11 11 13 13 13 14 16 15 12 14 16 15 15 14 14 15 14 13 12 19 24 26 25 25 25 17 10 11 12 11 11 11 10
13 14 14 14 15 15 15 14 14 16 16 15 17 18 17 13 11 10 12 10 9 10 9 10 11 12 12 10 9 10 12 13 15 13 11 10 11 14 14 13 15 14 15 15 15 14 13 13 20 26 26 26 26 25 18 11 12 11 11 10 11 10
14 15 15 15 16 16 17 18 18 18 19 18 18 17 17 14 11 10 9 9 8 6 7 8 9 10 8 8 9 10 11 13 11 12 12 12 14 14 15 15 15 14 13 13 12 12 12 11 21 25 26 25 27 26 17 11 10 9 9 10 10 10
15 16 16 13 14 15 14 15 16 17 19 17 15 15 14 12 11 11 8 8 7 5 5 5 6 6 5 6 8 10 12 12 13 13 11 11 10 9 8 9 10 13 14 13 13 13 13 11 24 25 27 28 26 27 13 11 11 11 10 9 10 9
14 15 15 15 15 15 15 16 16 17 17 18 16 14 14 12 12 11 9 8 7 6 5 5 6 7 7 8 10 12 12 12 12 11 9 11 11 12 12 12 12 11 12 13 13 13 12 11 20 25 25 27 29 21 10 11 10 10 10 10 10 9
15 14 14 16 16 15 15 16 16 16 16 17 16 16 16 13 12 12 11 10 8 6 6 6 6 8 8 9 12 12 10 9 8 10 10 13 13 13 13 11 10 10 11 13 14 13 13 12 18 27 28 28 29 18 13 11 11 10 10 10 9 8
16 16 16 16 18 17 17 18 17 16 16 16 16 16 15 13 13 13 12 11 9 7 6 6 6 7 8 10 10 9 11 11 11 8 8 9 9 10 9 10 10 10 10 11 13 15 15 12 16 26 27 29 30 19 13 12 11 12 11 11 10 8
15 17 17 18 18 17 18 17 16 16 15 16 15 15 16 14 14 12 10 9 9 7 6 6 7 7 8 9 8 7 8 6 7 8 9 8 8 9 9 9 9 11 9 9 10 11 12 12 12 18 29 30 30 25 15 12 12 13 13 11 11 10
12 14 16 15 17 18 16 15 16 17 17 16 15 16 16 14 13 12 10 8 7 7 6 6 6 8 6 5 6 6 5 5 7 7 8 9 7 7 8 10 9 9 9 9 10 10 11 11 14 16 29 29 30 27 22 11 12 12 12 12 11 10
14 16 15 13 15 16 15 16 18 16 16 16 16 16 15 15 13 12 11 10 8 7 6 6 5 4 4 3 5 6 6 5 6 7 8 7 7 9 9 8 7 8 7 6 7 8 9 10 16 14 25 30 31 28 27 13 12 12 12 12 10 10
16 15 16 15 14 13 14 14 17 17 16 16 18 16 16 15 14 13 13 11 9 8 7 5 5 4 3 5 6 7 7 5 6 6 6 6 7 8 9 9 8 8 7 6 6 5 6 7 10 17 16 27 30 30 26 24 16 22 12 12 12 12
14 16 16 15 14 12 12 13 15 16 17 20 17 17 17 16 15 14 14 13 10 8 7 6 5 4 4 5 6 7 8 7 7 7 8 9 9 8 8 7 7 8 9 9 8 7 6 7 8 14 17 19 30 28 26 26 23 24 13 10 9 9
16 17 17 15 14 14 13 11 13 19 20 17 16 19 18 16 15 15 15 14 12 9 7 5 5 5 5 5 7 8 8 8 8 8 6 8 9 9 10 9 9 10 9 9 7 6 5 6 8 8 13 18 23 28 25 25 26 24 23 12 8 9
14 16 19 20 16 13 13 13 12 17 19 16 16 17 16 17 19 18 17 16 13 11 7 7 6 5 5 6 6 7 7 9 10 9 9 9 9 9 10 10 10 10 10 9 8 9 6 7 6 10 10 13 19 20 24 25 25 24 22 15 10 14
13 16 19 22 20 13 10 14 12 13 17 17 16 15 15 17 19 20 18 16 15 12 7 8 7 6 6 6 6 6 6 7 8 8 9 10 10 11 10 10 11 11 11 12 10 8 9 8 9 11 11 10 11 11 14 16 15 21 19 13 11 13
12 14 16 17 19 13 14 15 15 18 14 16 13 13 15 17 18 19 20 19 15 12 9 8 9 8 7 7 8 8 8 7 9 10 12 13 13 12 12 11 12 13 14 13 9 8 10 12 12 13 15 15 13 12 11 11 11 12 10 10 9 8
16 15 15 17 16 16 14 17 17 13 16 15 14 15 16 19 20 19 21 19 15 13 10 8 8 8 8 8 8 9 9 11 11 12 10 8 8 9 10 11 11 10 9 9 12 14 8 5 14 17 15 15 18 15 13 11 12 9 8 13 16 10
14 16 17 17 15 13 17 16 15 17 15 14 17 15 18 20 18 16 18 14 14 13 10 8 8 8 8 8 8 8 8 8 12 10 9 8 11 15 13 10 9 7 8 9 9 11 15 18 14 15 23 25 25 25 23 19 21 18 16 20 25 14
14 15 17 18 13 14 15 16 19 16 17 13 15 15 15 15 15 15 14 13 12 13 10 9 9 8 8 9 9 8 9 7 8 17 18 13 12 15 17 16 15 14 15 11 9 10 13 8 14 22 25 27 27 27 27 25 23 24 26 27 17 11
17 16 18 16 15 14 16 15 17 18 12 14 12 15 15 16 16 16 15 12 11 12 12 10 10 9 9 9 8 8 9 9 8 8 17 22 18 17 19 19 19 18 17 19 15 10 8 13 20 24 26 27 28 28 27 25 26 27 27 25 20 11
15 16 14 16 14 17 18 16 20 13 8 10 14 14 18 18 17 17 16 13 11 11 13 12 10 10 9 9 9 9 9 9 10 10 8 11 18 20 19 20 21 20 19 21 21 21 16 16 21 26 28 29 29 28 26 27 27 27 26 25 13 10
15 16 17 14 17 19 19 20 19 16 8 13 14 17 18 18 16 14 15 13 14 13 11 11 10 10 10 10 10 10 10 10 10 9 8 8 7 9 13 18 22 22 21 21 24 23 23 22 25 28 29 30 30 29 28 26 20 25 26 18 12 11
15 16 16 18 18 20 19 22 21 13 15 13 16 18 17 14 15 14 18 25 19 14 14 13 11 10 10 9 10 10 10 10 9 8 8 9 10 10 10 8 11 18 22 17 18 23 26 26 27 29 29 31 31 31 31 28 17 16 12 10 8 9
17 16 16 16 17 17 19 22 18 14 14 16 14 11 13 16 17 14 16 15 16 17 15 14 12 10 10 10 10 9 9 9 8 9 9 8 9 9 8 8 8 9 15 24 21 24 25 26 28 28 30 30 32 31 32 17 12 11 11 11 9 9
Wind_Direction
266 256 237 228 218 219 227 235 232 228 216 206 201 203 202 194 199 207 212 208 206 203 204 203 204 206 206 203 193 186 192 194 194 193 194 172 172 175 172 176 178 180 183 182 180 178 180 179 180 175 175 176 174 174 172 163 164 163 165 166 161 165
252 248 239 233 222 217 213 209 216 227 225 212 215 213 202 197 205 206 215 215 213 211 206 211 210 210 207 202 194 194 199 198 191 190 183 188 173 176 174 176 180 180 180 183 180 179 179 180 180 177 175 176 181 173 171 171 167 166 167 166 166 163
6 305 273 263 269 244 226 218 214 211 207 219 213 207 204 206 206 200 215 209 217 211 208 208 207 212 209 204 203 202 202 196 193 193 191 162 181 175 178 180 182 180 181 180 182 182 182 180 179 180 175 179 178 178 173 166 170 167 167 162 167 169
344 336 260 250 240 242 235 235 235 225 219 217 209 213 215 214 209 207 210 207 212 209 213 209 206 205 200 207 207 207 201 199 196 191 174 185 184 176 180 181 179 180 179 180 184 185 185 185 182 179 178 180 178 177 172 172 172 170 169 167 172 173
289 272 245 227 223 234 236 228 220 225 229 221 218 214 220 210 217 219 217 215 214 216 214 208 206 200 200 203 205 207 204 201 194 182 186 187 182 183 181 181 179 178 178 180 183 184 185 186 184 183 182 183 180 177 177 177 176 176 173 178 180 175
296 297 280 261 244 239 235 228 228 229 224 221 217 222 229 218 218 212 214 221 225 223 215 212 207 198 205 207 209 209 207 199 191 183 187 185 178 183 185 180 178 176 179 182 183 185 186 184 186 185 187 185 180 178 178 176 180 181 183 181 175 172
308 292 286 278 265 260 249 237 231 227 229 221 219 223 225 218 218 212 217 219 226 221 216 215 204 204 204 208 210 214 206 200 191 185 186 181 185 184 178 181 177 178 181 186 185 184 185 186 184 183 185 187 185 181 177 178 179 183 185 183 178 173
336 333 315 287 290 294 290 277 257 242 238 233 228 234 230 222 213 214 217 216 219 222 220 215 206 208 207 209 210 209 203 201 192 187 188 185 184 181 184 179 181 185 187 187 186 184 184 183 184 184 184 183 180 180 180 179 179 180 179 177 176 175
357 352 350 346 339 312 293 296 293 287 276 266 247 238 235 228 216 219 219 219 219 221 219 216 211 208 210 210 208 201 195 194 191 186 189 186 184 180 182 186 184 188 187 189 184 186 184 182 181 183 183 182 181 180 177 175 176 174 173 175 174 173
355 356 353 353 348 343 337 312 282 271 267 263 256 240 236 230 215 220 222 223 224 224 222 216 217 214 212 207 200 196 194 189 187 191 187 177 183 186 186 184 187 187 186 186 186 186 180 180 181 183 183 183 180 178 178 174 171 169 168 167 170 172
347 347 350 349 347 347 343 340 334 321 296 268 263 251 241 233 220 227 224 224 225 225 221 218 216 217 211 200 196 195 192 191 191 185 182 185 187 185 186 183 180 177 185 184 183 180 181 182 186 184 181 178 179 178 176 173 169 168 168 167 168 168
343 344 343 346 347 344 341 339 336 332 326 316 305 291 264 214 226 231 230 228 230 228 221 217 213 207 198 196 200 198 193 189 185 184 187 188 185 181 178 178 181 183 183 180 183 183 183 187 186 184 182 179 175 172 171 167 170 170 170 166 165 168
345 345 345 343 343 340 338 335 332 331 330 328 321 308 293 215 236 234 232 233 233 231 225 218 212 200 200 203 198 196 189 188 185 185 185 183 182 181 178 177 181 185 184 185 183 182 186 187 184 181 182 180 176 171 169 170 172 171 167 169 169 173
346 345 342 339 337 337 337 335 331 330 331 329 324 317 303 250 239 235 235 235 237 229 221 217 212 203 208 197 199 194 192 183 180 184 184 180 180 182 177 182 186 184 185 184 184 186 186 186 182 182 183 180 177 173 171 170 169 167 169 170 171 169
339 338 337 336 337 335 331 329 329 330 329 326 320 316 306 277 251 243 242 242 236 232 223 215 210 213 207 204 199 188 182 183 185 184 182 187 184 170 180 189 181 188 183 182 184 187 185 185 183 184 183 181 179 176 169 170 166 168 170 170 171 170
334 336 333 328 327 327 324 326 330 326 325 323 324 324 316 297 274 256 255 255 242 232 218 209 207 211 213 201 188 183 185 186 191 189 184 174 170 182 184 183 186 184 185 186 185 184 184 183 185 185 184 182 179 174 167 167 166 168 171 164 169 171
332 333 334 335 333 331 333 334 338 334 331 334 332 331 326 313 296 282 271 267 259 247 231 220 213 215 204 192 188 184 190 192 188 181 183 181 184 184 185 185 186 188 184 183 182 182 184 184 185 187 185 182 180 176 161 163 162 162 166 168 170 170
333 332 328 327 328 329 331 331 332 334 328 327 330 331 330 320 309 297 298 285 275 258 245 226 222 212 196 189 189 191 193 192 190 186 181 179 183 184 178 185 184 182 184 183 180 181 184 179 186 188 186 184 181 176 160 163 164 164 165 166 169 171
332 331 328 328 331 331 332 333 332 331 329 329 331 334 332 331 321 312 307 293 285 268 246 225 212 201 192 189 193 200 198 191 191 186 176 177 181 180 185 187 186 185 182 181 182 181 180 176 189 189 186 186 185 173 150 162 160 162 163 168 169 171
331 331 334 329 330 332 332 332 330 330 331 330 331 335 332 335 329 322 315 302 295 272 252 231 211 207 198 194 201 201 202 197 193 188 180 182 180 184 187 179 179 183 182 181 184 182 175 180 188 188 189 185 186 165 157 162 164 163 166 164 168 169
330 330 331 331 329 333 334 330 330 331 331 331 333 331 329 333 333 327 316 304 295 277 256 240 226 216 206 207 207 196 194 192 191 187 182 187 181 182 173 176 179 179 181 186 182 181 182 180 186 189 188 185 185 162 162 163 167 165 168 167 166 166
329 329 332 331 330 332 331 329 329 329 329 328 329 329 327 332 330 317 303 294 286 274 255 240 231 224 213 208 200 195 196 181 175 180 182 186 182 178 175 178 180 178 181 173 178 185 181 177 188 193 192 190 184 164 164 167 167 172 167 167 166 160
328 326 326 329 328 329 328 330 329 326 326 325 326 325 323 324 323 319 309 299 292 278 262 249 235 227 217 202 192 180 172 174 178 170 180 179 175 168 172 177 177 174 174 176 179 183 186 184 184 195 195 193 188 168 168 171 177 172 168 169 166 167
323 322 323 326 327 323 327 329 326 321 322 322 320 319 317 321 322 320 316 305 292 281 269 261 257 241 210 171 157 165 175 172 166 175 175 175 172 172 174 172 173 173 168 167 176 186 187 187 192 190 198 195 193 178 171 165 180 172 168 168 168 170
320 320 318 321 323 323 322 325 321 319 320 317 316 320 317 318 318 318 316 308 298 288 278 270 250 227 188 176 171 171 176 162 159 159 161 167 172 176 174 174 171 166 165 160 174 179 178 186 198 202 201 198 196 188 173 172 169 179 176 173 171 175
315 316 314 315 316 318 319 322 318 316 317 312 320 320 315 313 311 312 310 307 299 289 279 263 250 220 191 182 172 172 167 168 165 165 174 174 175 177 176 180 173 171 172 175 176 175 175 179 195 209 211 202 196 194 177 174 173 179 173 175 171 164
314 311 306 306 313 316 317 320 317 315 309 310 321 315 309 312 316 315 309 304 298 284 269 250 238 221 202 191 179 178 174 167 166 174 184 178 184 183 183 182 180 185 183 184 176 152 154 172 187 201 214 211 199 198 182 177 178 180 175 172 168 163
308 306 305 307 309 312 314 313 316 308 303 312 313 307 318 326 322 317 310 304 297 286 262 246 237 221 212 200 198 194 183 176 178 181 180 186 194 192 190 182 183 186 187 188 106 157 156 164 165 191 198 207 203 200 187 181 182 182 177 168 168 167
307 306 308 306 306 313 310 309 306 299 303 306 305 310 320 319 315 309 304 299 297 290 265 246 238 219 213 205 203 198 184 183 184 186 188 191 193 193 193 189 187 189 190 191 181 155 160 162 177 186 190 192 194 197 186 179 182 181 172 165 168 168
294 296 300 298 299 313 311 305 304 302 298 298 305 318 318 311 306 303 299 295 293 287 272 253 236 221 217 207 200 198 195 191 190 195 199 194 196 194 200 194 192 194 193 193 175 156 175 187 189 189 186 186 182 183 180 169 167 172 163 156 163 154
300 296 294 292 297 307 305 300 296 294 298 306 316 321 313 302 298 297 293 291 286 279 269 248 239 222 219 214 210 215 206 192 194 203 210 211 203 204 198 199 209 205 199 187 183 179 184 169 194 199 186 181 180 173 170 159 163 158 138 156 146 121
289 293 294 290 297 301 296 295 294 296 300 308 306 306 299 295 294 289 284 283 283 278 271 250 242 229 223 217 214 213 222 219 211 206 204 206 201 213 217 214 215 203 192 199 201 191 188 195 197 174 181 182 179 178 173 162 162 158 150 152 145 135
291 292 288 288 293 290 291 293 292 290 295 305 298 294 286 283 286 283 279 282 279 278 270 258 245 234 225 220 217 209 210 209 216 217 216 211 204 208 216 218 219 209 203 196 192 192 200 188 178 181 184 184 182 178 174 169 161 149 152 149 137 134
294 291 288 290 291 289 288 284 281 281 293 294 290 289 283 278 279 280 279 276 276 280 276 262 251 238 225 225 213 209 208 206 206 216 220 219 216 213 211 215 215 213 203 202 192 178 182 180 178 179 182 183 182 180 174 170 157 155 155 156 143 132
291 290 288 290 291 291 289 284 281 282 295 289 287 284 282 280 277 276 277 275 273 273 270 262 252 242 231 226 213 211 207 207 206 207 205 214 219 219 219 219 218 215 211 207 201 189 181 178 179 179 180 181 181 179 176 170 165 165 162 149 141 149
289 288 288 288 288 286 287 286 282 291 304 288 282 275 271 273 272 269 272 275 277 277 271 261 248 241 236 226 222 215 209 211 209 208 195 185 187 214 222 222 217 213 210 207 202 197 185 183 181 180 180 180 179 177 173 168 167 168 169 150 152 154
287 284 284 289 290 288 286 283 285 299 295 280 272 268 268 270 280 287 286 282 281 279 271 264 254 243 233 227 219 216 211 210 207 198 194 190 195 195 198 192 207 214 211 203 200 196 190 184 183 182 180 178 177 175 170 164 163 169 151 129 147 154
285 282 285 287 284 281 280 279 288 295 284 276 269 283 300 299 288 279 275 274 273 269 267 263 256 240 231 225 221 213 210 205 196 196 197 196 196 197 192 193 196 195 206 202 195 192 188 185 182 179 178 176 176 173 169 165 168 149 151 153 153 151